Time,TemperatureF,DewpointF,PressureIn,WindDirection,WindDirectionDegrees,WindSpeedMPH,WindSpeedGustMPH,Humidity,HourlyPrecipIn,Conditions,Clouds,dailyrainin,SoftwareType,DateUTC
2013-09-12 00:03:00,71.9,68.0,29.91,West,264,0.0,-999.0,87,-99.99,,,0.00,weatherlink.com 1.10,2013-09-12 04:03:00,
2013-09-12 00:18:00,71.3,67.0,29.91,West,264,0.0,-999.0,87,-99.99,,,0.00,weatherlink.com 1.10,2013-09-12 04:18:00,
2013-09-12 00:33:00,70.6,67.0,29.91,West,264,0.0,-999.0,87,-99.99,,,0.00,weatherlink.com 1.10,2013-09-12 04:33:00,
2013-09-12 00:48:00,70.1,67.0,29.90,West,262,0.0,-999.0,88,-99.99,,,0.00,weatherlink.com 1.10,2013-09-12 04:48:00,
2013-09-12 01:03:00,69.7,66.0,29.89,West,262,0.0,-999.0,88,-99.99,,,0.00,weatherlink.com 1.10,2013-09-12 05:03:00,
2013-09-12 01:18:00,69.7,66.0,29.89,West,262,0.0,-999.0,88,-99.99,,,0.00,weatherlink.com 1.10,2013-09-12 05:18:00,
2013-09-12 01:33:00,69.5,66.0,29.88,WSW,252,0.0,-999.0,88,-99.99,,,0.00,weatherlink.com 1.10,2013-09-12 05:33:00,
2013-09-12 01:48:00,69.3,66.0,29.87,SSW,196,0.0,-999.0,88,-99.99,,,0.00,weatherlink.com 1.10,2013-09-12 05:48:00,
2013-09-12 02:03:00,69.3,66.0,29.87,SSW,198,0.0,-999.0,88,-99.99,,,0.00,weatherlink.com 1.10,2013-09-12 06:03:00,
2013-09-12 02:18:00,69.1,66.0,29.87,SSW,198,0.0,-999.0,88,-99.99,,,0.00,weatherlink.com 1.10,2013-09-12 06:18:00,
2013-09-12 02:33:00,69.1,66.0,29.87,SSW,198,0.0,-999.0,88,-99.99,,,0.00,weatherlink.com 1.10,2013-09-12 06:33:00,
2013-09-12 02:48:00,68.9,65.0,29.88,SSW,198,0.0,-999.0,88,-99.99,,,0.00,weatherlink.com 1.10,2013-09-12 06:48:00,
2013-09-12 03:03:00,68.5,65.0,29.88,SSW,198,0.0,-999.0,88,-99.99,,,0.00,weatherlink.com 1.10,2013-09-12 07:03:00,
2013-09-12 03:18:00,68.4,65.0,29.88,SSW,198,0.0,-999.0,89,-99.99,,,0.00,weatherlink.com 1.10,2013-09-12 07:18:00,
2013-09-12 03:33:00,68.4,65.0,29.88,SSW,198,0.0,-999.0,88,-99.99,,,0.00,weatherlink.com 1.10,2013-09-12 07:33:00,
2013-09-12 03:48:00,68.2,65.0,29.87,SSW,199,0.0,-999.0,89,-99.99,,,0.00,weatherlink.com 1.10,2013-09-12 07:48:00,
2013-09-12 04:03:00,68.2,65.0,29.88,SSW,199,0.0,-999.0,89,-99.99,,,0.00,weatherlink.com 1.10,2013-09-12 08:03:00,
2013-09-12 04:18:00,67.7,64.0,29.88,SSW,199,0.0,-999.0,89,-99.99,,,0.00,weatherlink.com 1.10,2013-09-12 08:18:00,
2013-09-12 04:33:00,67.5,64.0,29.89,SSW,199,0.0,-999.0,89,-99.99,,,0.00,weatherlink.com 1.10,2013-09-12 08:33:00,
2013-09-12 04:48:00,67.2,64.0,29.88,SSW,199,0.0,-999.0,89,-99.99,,,0.00,weatherlink.com 1.10,2013-09-12 08:48:00,
2013-09-12 05:03:00,66.7,63.0,29.88,SSW,199,0.0,-999.0,89,-99.99,,,0.00,weatherlink.com 1.10,2013-09-12 09:03:00,
2013-09-12 05:18:00,66.4,63.0,29.88,SSW,199,0.0,-999.0,89,-99.99,,,0.00,weatherlink.com 1.10,2013-09-12 09:18:00,
2013-09-12 05:33:00,66.1,63.0,29.88,SSW,199,0.0,-999.0,89,-99.99,,,0.00,weatherlink.com 1.10,2013-09-12 09:33:00,
2013-09-12 05:48:00,65.9,63.0,29.88,SSW,199,0.0,-999.0,89,-99.99,,,0.00,weatherlink.com 1.10,2013-09-12 09:48:00,
2013-09-12 06:03:00,65.7,62.0,29.87,SSW,199,0.0,-999.0,89,-99.99,,,0.00,weatherlink.com 1.10,2013-09-12 10:03:00,
2013-09-12 06:18:00,65.7,62.0,29.86,SSW,199,0.0,-999.0,89,-99.99,,,0.00,weatherlink.com 1.10,2013-09-12 10:18:00,
2013-09-12 06:33:00,65.9,63.0,29.86,SSW,199,0.0,-999.0,89,-99.99,,,0.00,weatherlink.com 1.10,2013-09-12 10:33:00,
2013-09-12 06:48:00,66.2,63.0,29.86,SSW,198,0.0,-999.0,90,-99.99,,,0.00,weatherlink.com 1.10,2013-09-12 10:48:00,
2013-09-12 07:03:00,66.6,64.0,29.85,South,187,0.0,-999.0,90,-99.99,,,0.00,weatherlink.com 1.10,2013-09-12 11:03:00,
2013-09-12 07:18:00,68.5,66.0,29.86,SSW,194,0.0,-999.0,90,-99.99,,,0.00,weatherlink.com 1.10,2013-09-12 11:18:00,
2013-09-12 07:33:00,69.1,66.0,29.86,SSW,213,0.0,-999.0,90,-99.99,,,0.00,weatherlink.com 1.10,2013-09-12 11:33:00,
2013-09-12 07:48:00,69.9,67.0,29.85,South,174,0.0,-999.0,90,-99.99,,,0.00,weatherlink.com 1.10,2013-09-12 11:48:00,
2013-09-12 08:03:00,70.8,68.0,29.85,SW,224,0.0,-999.0,89,-99.99,,,0.00,weatherlink.com 1.10,2013-09-12 12:03:00,
2013-09-12 08:18:00,71.8,69.0,29.85,South,191,0.0,-999.0,89,-99.99,,,0.00,weatherlink.com 1.10,2013-09-12 12:18:00,
2013-09-12 08:33:00,72.8,69.0,29.84,SSW,192,0.0,-999.0,88,-99.99,,,0.00,weatherlink.com 1.10,2013-09-12 12:33:00,
2013-09-12 08:48:00,73.8,70.0,29.84,SSW,199,0.0,-999.0,88,-99.99,,,0.00,weatherlink.com 1.10,2013-09-12 12:48:00,
2013-09-12 09:03:00,74.9,71.0,29.83,SSW,211,0.0,-999.0,88,-99.99,,,0.00,weatherlink.com 1.10,2013-09-12 13:03:00,
2013-09-12 09:18:00,76.2,72.0,29.82,SW,223,0.0,-999.0,87,-99.99,,,0.00,weatherlink.com 1.10,2013-09-12 13:18:00,
2013-09-12 09:33:00,77.2,73.0,29.82,WSW,240,0.0,-999.0,86,-99.99,,,0.00,weatherlink.com 1.10,2013-09-12 13:33:00,
2013-09-12 09:48:00,77.8,73.0,29.82,SSE,154,0.0,-999.0,86,-99.99,,,0.00,weatherlink.com 1.10,2013-09-12 13:48:00,
2013-09-12 10:03:00,78.4,74.0,29.81,SSW,211,0.0,-999.0,85,-99.99,,,0.00,weatherlink.com 1.10,2013-09-12 14:03:00,
2013-09-12 10:18:00,79.7,75.0,29.81,WNW,282,0.0,-999.0,85,-99.99,,,0.00,weatherlink.com 1.10,2013-09-12 14:18:00,
2013-09-12 10:33:00,80.3,75.0,29.81,SSW,192,0.0,-999.0,84,-99.99,,,0.00,weatherlink.com 1.10,2013-09-12 14:33:00,
2013-09-12 10:48:00,81.0,75.0,29.80,SW,224,0.0,-999.0,83,-99.99,,,0.00,weatherlink.com 1.10,2013-09-12 14:48:00,
2013-09-12 11:03:00,81.9,76.0,29.80,SW,220,0.0,-999.0,82,-99.99,,,0.00,weatherlink.com 1.10,2013-09-12 15:03:00,
2013-09-12 11:18:00,81.0,76.0,29.80,SW,219,0.0,-999.0,84,-99.99,,,0.00,weatherlink.com 1.10,2013-09-12 15:18:00,
2013-09-12 11:33:00,82.4,77.0,29.78,SSW,205,0.0,-999.0,83,-99.99,,,0.00,weatherlink.com 1.10,2013-09-12 15:33:00,
2013-09-12 11:48:00,83.9,78.0,29.78,SW,225,0.0,-999.0,81,-99.99,,,0.00,weatherlink.com 1.10,2013-09-12 15:48:00,
2013-09-12 12:03:00,83.8,76.0,29.77,SSW,205,0.0,-999.0,78,-99.99,,,0.00,weatherlink.com 1.10,2013-09-12 16:03:00,
2013-09-12 12:18:00,84.1,77.0,29.76,SSW,207,0.0,-999.0,79,-99.99,,,0.00,weatherlink.com 1.10,2013-09-12 16:18:00,
2013-09-12 12:33:00,85.0,77.0,29.76,West,273,0.0,-999.0,78,-99.99,,,0.00,weatherlink.com 1.10,2013-09-12 16:33:00,
2013-09-12 12:48:00,83.7,76.0,29.76,SW,215,0.0,-999.0,78,-99.99,,,0.00,weatherlink.com 1.10,2013-09-12 16:48:00,
2013-09-12 13:03:00,84.7,76.0,29.75,South,188,0.0,-999.0,75,-99.99,,,0.00,weatherlink.com 1.10,2013-09-12 17:03:00,
2013-09-12 13:18:00,83.7,76.0,29.74,SW,225,0.0,-999.0,78,-99.99,,,0.00,weatherlink.com 1.10,2013-09-12 17:18:00,
2013-09-12 13:33:00,84.2,76.0,29.74,SSW,208,0.0,-999.0,77,-99.99,,,0.00,weatherlink.com 1.10,2013-09-12 17:33:00,
2013-09-12 13:48:00,83.0,75.0,29.73,South,190,0.0,-999.0,77,-99.99,,,0.00,weatherlink.com 1.10,2013-09-12 17:48:00,
2013-09-12 14:03:00,83.0,77.0,29.72,WSW,242,0.0,-999.0,83,-99.99,,,0.00,weatherlink.com 1.10,2013-09-12 18:03:00,
2013-09-12 14:18:00,83.5,77.0,29.70,WSW,253,0.0,-999.0,81,-99.99,,,0.00,weatherlink.com 1.10,2013-09-12 18:18:00,
2013-09-12 14:33:00,85.1,77.0,29.71,WNW,284,0.0,-999.0,76,-99.99,,,0.00,weatherlink.com 1.10,2013-09-12 18:33:00,
2013-09-12 14:48:00,85.1,76.0,29.70,SW,228,0.0,-999.0,74,-99.99,,,0.00,weatherlink.com 1.10,2013-09-12 18:48:00,
2013-09-12 15:03:00,84.0,75.0,29.70,SSW,211,0.0,-999.0,73,-99.99,,,0.00,weatherlink.com 1.10,2013-09-12 19:03:00,
2013-09-12 15:18:00,84.7,76.0,29.68,SSW,202,0.0,-999.0,74,-99.99,,,0.00,weatherlink.com 1.10,2013-09-12 19:18:00,
2013-09-12 15:33:00,84.9,75.0,29.68,SSW,193,0.0,-999.0,73,-99.99,,,0.00,weatherlink.com 1.10,2013-09-12 19:33:00,
2013-09-12 15:48:00,83.4,74.0,29.68,SW,224,0.0,-999.0,72,-99.99,,,0.00,weatherlink.com 1.10,2013-09-12 19:48:00,
2013-09-12 16:03:00,82.6,74.0,29.69,SSW,192,0.0,-999.0,76,-99.99,,,0.00,weatherlink.com 1.10,2013-09-12 20:03:00,
2013-09-12 16:18:00,81.5,73.0,29.67,SSE,148,0.0,-999.0,75,-99.99,,,0.00,weatherlink.com 1.10,2013-09-12 20:18:00,
2013-09-12 16:33:00,81.2,75.0,29.67,SW,215,0.0,-999.0,81,-99.99,,,0.00,weatherlink.com 1.10,2013-09-12 20:33:00,
2013-09-12 16:48:00,81.7,74.0,29.67,SSE,147,0.0,-999.0,77,-99.99,,,0.00,weatherlink.com 1.10,2013-09-12 20:48:00,
2013-09-12 17:03:00,79.7,73.0,29.67,SSE,162,0.0,-999.0,79,-99.99,,,0.00,weatherlink.com 1.10,2013-09-12 21:03:00,
2013-09-12 17:18:00,79.1,73.0,29.66,South,173,0.0,-999.0,82,-99.99,,,0.00,weatherlink.com 1.10,2013-09-12 21:18:00,
2013-09-12 17:33:00,78.6,73.0,29.66,SW,217,0.0,-999.0,82,-99.99,,,0.00,weatherlink.com 1.10,2013-09-12 21:33:00,
2013-09-12 17:48:00,78.5,73.0,29.66,South,186,0.0,-999.0,82,-99.99,,,0.00,weatherlink.com 1.10,2013-09-12 21:48:00,
2013-09-12 18:03:00,77.6,73.0,29.66,SSW,200,0.0,-999.0,84,-99.99,,,0.00,weatherlink.com 1.10,2013-09-12 22:03:00,
2013-09-12 18:18:00,77.3,72.0,29.66,SSW,197,0.0,-999.0,84,-99.99,,,0.00,weatherlink.com 1.10,2013-09-12 22:18:00,
2013-09-12 18:33:00,77.0,72.0,29.65,SSW,194,0.0,-999.0,84,-99.99,,,0.00,weatherlink.com 1.10,2013-09-12 22:33:00,
2013-09-12 18:48:00,76.3,72.0,29.64,SSW,204,0.0,-999.0,85,-99.99,,,0.00,weatherlink.com 1.10,2013-09-12 22:48:00,
2013-09-12 19:03:00,76.5,71.0,29.65,SW,223,0.0,-999.0,84,-99.99,,,0.00,weatherlink.com 1.10,2013-09-12 23:03:00,
2013-09-12 19:18:00,76.0,71.0,29.65,South,176,0.0,-999.0,85,-99.99,,,0.00,weatherlink.com 1.10,2013-09-12 23:18:00,
2013-09-12 19:33:00,75.5,71.0,29.65,SSE,163,0.0,-999.0,86,-99.99,,,0.00,weatherlink.com 1.10,2013-09-12 23:33:00,
2013-09-12 19:48:00,74.8,70.0,29.64,WSW,244,0.0,-999.0,86,-99.99,,,0.00,weatherlink.com 1.10,2013-09-12 23:48:00,
2013-09-12 20:03:00,74.6,71.0,29.65,South,182,0.0,-999.0,87,-99.99,,,0.00,weatherlink.com 1.10,2013-09-13 00:03:00,
2013-09-12 20:18:00,74.4,70.0,29.65,SW,232,0.0,-999.0,87,-99.99,,,0.00,weatherlink.com 1.10,2013-09-13 00:18:00,
2013-09-12 20:33:00,73.8,70.0,29.65,SSW,207,0.0,-999.0,87,-99.99,,,0.00,weatherlink.com 1.10,2013-09-13 00:33:00,
2013-09-12 20:48:00,73.8,69.0,29.66,WNW,303,0.0,-999.0,84,-99.99,,,0.00,weatherlink.com 1.10,2013-09-13 00:48:00,
2013-09-12 21:03:00,71.9,68.0,29.66,NNE,21,0.0,-999.0,86,-99.99,,,0.00,weatherlink.com 1.10,2013-09-13 01:03:00,
2013-09-12 21:18:00,70.6,67.0,29.66,West,276,0.0,-999.0,87,-99.99,,,0.01,weatherlink.com 1.10,2013-09-13 01:18:00,
2013-09-12 21:33:00,69.1,66.0,29.66,NW,318,0.0,-999.0,88,-99.99,,,0.07,weatherlink.com 1.10,2013-09-13 01:33:00,
2013-09-12 21:48:00,68.7,65.0,29.66,NW,317,0.0,-999.0,88,-99.99,,,0.11,weatherlink.com 1.10,2013-09-13 01:48:00,
2013-09-12 22:03:00,68.2,65.0,29.65,NNW,329,0.0,-999.0,89,-99.99,,,0.42,weatherlink.com 1.10,2013-09-13 02:03:00,
2013-09-12 22:18:00,67.9,65.0,29.64,North,5,0.0,-999.0,89,-99.99,,,1.03,weatherlink.com 1.10,2013-09-13 02:18:00,
2013-09-12 22:33:00,67.9,65.0,29.68,WSW,257,0.0,-999.0,89,-99.99,,,1.33,weatherlink.com 1.10,2013-09-13 02:33:00,
2013-09-12 22:48:00,67.8,65.0,29.68,West,273,0.0,-999.0,89,-99.99,,,1.58,weatherlink.com 1.10,2013-09-13 02:48:00,
2013-09-12 23:03:00,67.7,64.0,29.66,West,281,0.0,-999.0,89,-99.99,,,1.77,weatherlink.com 1.10,2013-09-13 03:03:00,
2013-09-12 23:18:00,67.4,64.0,29.64,West,280,0.0,-999.0,89,-99.99,,,1.80,weatherlink.com 1.10,2013-09-13 03:18:00,
2013-09-12 23:33:00,67.2,64.0,29.64,West,280,0.0,-999.0,90,-99.99,,,1.83,weatherlink.com 1.10,2013-09-13 03:33:00,
2013-09-12 23:48:00,67.2,64.0,29.62,West,281,0.0,-999.0,90,-99.99,,,1.86,weatherlink.com 1.10,2013-09-13 03:48:00,